This demonstration page uses our WeatherBlox Daily Observations layout. Learn more.

Hourly Observations for May 10, 2019

Temp ( °F °C ) Dew Point ( °F °C ) Humidity (%) Winds ( mph kmh ) Pressure ( in mb ) Visibility ( mi km ) Precip ( " mm )
12:15 am 00:15 Clear 68 20 63 17 83 83 SSE 7 11 30.09 1019 10 16.09344 0 0
12:35 am 00:35 Partly Cloudy 68 20 63 17 83 83 SSE 8 13 30.09 1019 10 16.09344 0 0
12:55 am 00:55 Partly Cloudy 68 20 63 17 83 83 SSE 8 13 30.09 1019 10 16.09344 0 0
1:15 am 01:15 Partly Cloudy 68 20 63 17 83 83 S 7 11 30.09 1019 10 16.09344 0 0
1:35 am 01:35 Mostly Cloudy 68 20 63 17 83 83 SSE 6 9 30.06 1018 10 16.09344 0 0
1:55 am 01:55 Mostly Cloudy 68 20 63 17 83 83 S 7 11 30.06 1018 10 16.09344 0 0
2:15 am 02:15 Partly Cloudy 66 19 63 17 88 88 S 6 9 30.06 1018 10 16.09344 0 0
2:35 am 02:35 Clear 68 20 63 17 83 83 S 9 15 30.06 1018 10 16.09344 0 0
2:55 am 02:55 Clear 66 19 63 17 88 88 S 7 11 30.06 1018 10 16.09344 0 0
3:15 am 03:15 Clear 66 19 63 17 88 88 SSW 7 11 30.06 1018 10 16.09344 0 0
3:35 am 03:35 Partly Cloudy 68 20 63 17 83 83 S 9 15 30.03 1017 10 16.09344 0 0
3:55 am 03:55 Partly Cloudy 68 20 63 17 83 83 S 10 17 30.03 1017 10 16.09344 0 0
4:15 am 04:15 Mostly Cloudy 68 20 63 17 83 83 S 9 15 30.06 1018 10 16.09344 0 0
4:35 am 04:35 Mostly Cloudy 68 20 63 17 83 83 S 8 13 30.03 1017 10 16.09344 0 0
4:55 am 04:55 Mostly Cloudy 68 20 63 17 83 83 S 10 17 30.03 1017 10 16.09344 0 0
5:15 am 05:15 Mostly Cloudy 66 19 63 17 88 88 S 13 20 30.03 1017 10 16.09344 0 0
5:35 am 05:35 Mostly Cloudy 66 19 63 17 88 88 S 13 20 30.03 1017 10 16.09344 0 0
5:55 am 05:55 Mostly Cloudy 64 18 63 17 94 94 S 10 17 30.03 1017 10 16.09344 0 0
6:15 am 06:15 Partly Cloudy 64 18 63 17 94 94 S 8 13 30.03 1017 10 16.09344 0 0
6:35 am 06:35 Mostly Cloudy 64 18 63 17 94 94 S 12 19 30.03 1017 10 16.09344 0 0
6:55 am 06:55 Cloudy 66 19 63 17 88 88 S 12 19 30.03 1017 10 16.09344 0 0
7:15 am 07:15 Cloudy 66 19 63 17 88 88 S 10 17 30.06 1018 10 16.09344 0 0
7:35 am 07:35 Cloudy 66 19 63 17 88 88 S 13 20 30.03 1017 10 16.09344 0 0
7:55 am 07:55 Cloudy 66 19 63 17 88 88 S 9 15 30.03 1017 10 16.09344 0 0
8:15 am 08:15 Cloudy 68 20 63 17 83 83 S 10 17 30.03 1017 10 16.09344 0 0
8:35 am 08:35 Cloudy 68 20 63 17 83 83 S 10 17 30.03 1017 10 16.09344 0 0
8:55 am 08:55 Cloudy 68 20 63 17 83 83 S 9 15 30.03 1017 10 16.09344 0 0
9:15 am 09:15 Cloudy 68 20 64 18 88 88 S 8 13 30.03 1017 10 16.09344 0 0
9:35 am 09:35 Cloudy 70 21 64 18 83 83 SSW 9 15 30.03 1017 10 16.09344 0 0
9:55 am 09:55 Mostly Cloudy 72 22 64 18 78 78 SW 12 19 30.03 1017 10 16.09344 0 0
10:15 am 10:15 Partly Cloudy 73 23 64 18 74 74 SSW 14 22 30.03 1017 10 16.09344 0 0
10:35 am 10:35 Sunny 75 24 64 18 69 69 SSW 9 15 30 1016 10 16.09344 0 0
10:55 am 10:55 Partly Cloudy 77 25 66 19 69 69 SSW 9 15 30 1016 10 16.09344 0 0
11:15 am 11:15 Partly Cloudy 77 25 66 19 69 69 SSW 13 20 30 1016 10 16.09344 0 0
11:35 am 11:35 Partly Cloudy 79 26 66 19 65 65 SSW 14 22 30 1016 10 16.09344 0 0
11:55 am 11:55 Partly Cloudy 79 26 68 20 70 70 S 12 19 30 1016 10 16.09344 0 0
12:15 pm 12:15 Mostly Cloudy 81 27 68 20 66 66 S 12 19 30 1016 10 16.09344 0 0
12:35 pm 12:35 Mostly Cloudy 81 27 68 20 66 66 SSW 14 22 30 1016 10 16.09344 0 0
12:55 pm 12:55 Partly Cloudy 81 27 68 20 66 66 SW 13 20 29.97 1015 10 16.09344 0 0
1:15 pm 13:15 Partly Cloudy 81 27 68 20 66 66 SW 13 20 29.97 1015 10 16.09344 0 0
1:35 pm 13:35 Partly Cloudy 82 28 68 20 62 62 S 14 22 29.97 1015 10 16.09344 0 0
1:55 pm 13:55 Partly Cloudy 82 28 68 20 62 62 SW 15 24 29.94 1014 10 16.09344 0 0
2:15 pm 14:15 Mostly Cloudy 81 27 68 20 66 66 SSW 15 24 29.94 1014 10 16.09344 0 0
2:35 pm 14:35 Cloudy 79 26 68 20 70 70 W 8 13 29.97 1015 10 16.09344 0 0
2:55 pm 14:55 Cloudy with Nearby Thunderstorms 68 20 68 20 100 100 W 14 22 30 1016 0.5 0.804672 0 0
3:15 pm 15:15 Cloudy 70 21 68 20 94 94 SSW 5 7 29.97 1015 7 11.265408 0 0
3:35 pm 15:35 Cloudy 72 22 70 21 94 94 S 6 9 29.97 1015 10 16.09344 0 0
3:55 pm 15:55 Cloudy 73 23 70 21 89 89 SSW 5 7 29.97 1015 10 16.09344 0 0
4:15 pm 16:15 Mostly Cloudy 75 24 70 21 83 83 SSW 6 9 29.97 1015 10 16.09344 0 0
4:35 pm 16:35 Mostly Cloudy 77 25 70 21 79 79 S 8 13 29.97 1015 10 16.09344 0 0
4:55 pm 16:55 Mostly Cloudy 77 25 70 21 79 79 S 9 15 29.94 1014 10 16.09344 0 0
5:15 pm 17:15 Mostly Cloudy 75 24 70 21 83 83 S 7 11 29.94 1014 10 16.09344 0 0
5:35 pm 17:35 Partly Cloudy 77 25 70 21 79 79 S 7 11 29.94 1014 10 16.09344 0 0
5:55 pm 17:55 Partly Cloudy 79 26 70 21 74 74 S 8 13 29.97 1015 10 16.09344 0 0
6:15 pm 18:15 Partly Cloudy 77 25 70 21 79 79 S 6 9 29.97 1015 10 16.09344 0 0
6:35 pm 18:35 Mostly Cloudy 77 25 70 21 79 79 S 8 13 29.94 1014 10 16.09344 0 0
6:55 pm 18:55 Partly Cloudy 77 25 70 21 79 79 S 6 9 29.94 1014 10 16.09344 0 0
7:15 pm 19:15 Partly Cloudy 75 24 70 21 83 83 S 6 9 29.94 1014 10 16.09344 0 0
7:35 pm 19:35 Mostly Cloudy with Nearby Thunderstorms 73 23 68 20 83 83 Calm 29.94 1014 10 16.09344 0 0
7:55 pm 19:55 Cloudy 73 23 70 21 89 89 Calm 29.97 1015 10 16.09344 0 0
8:15 pm 20:15 Cloudy 73 23 70 21 89 89 N 16 26 29.97 1015 10 16.09344 0 0
8:35 pm 20:35 Cloudy 66 19 66 19 100 100 NNE 5 7 29.97 1015 2.5 4.02336 0 0
8:55 pm 20:55 Cloudy 66 19 66 19 100 100 NNE 3 6 30 1016 10 16.09344 0 0
9:15 pm 21:15 Cloudy 66 19 66 19 100 100 Calm 30 1016 10 16.09344 0 0
9:35 pm 21:35 Mostly Cloudy 64 18 64 18 100 100 Calm 30 1016 10 16.09344 0 0
9:55 pm 21:55 Clear 64 18 64 18 100 100 SW 3 6 30 1016 10 16.09344 0 0
10:15 pm 22:15 Clear 64 18 64 18 100 100 Calm 30 1016 10 16.09344 0 0
10:35 pm 22:35 Clear 63 17 63 17 100 100 Calm 30 1016 10 16.09344 0 0
10:55 pm 22:55 Clear 63 17 63 17 100 100 Calm 30.03 1017 7 11.265408 0 0
11:15 pm 23:15 Clear 63 17 63 17 100 100 Calm 30 1016 10 16.09344 0 0
11:35 pm 23:35 Mostly Cloudy 63 17 63 17 100 100 WSW 3 6 30.03 1017 1.25 2.01168 0 0
11:55 pm 23:55 Cloudy 63 17 63 17 100 100 Calm 30.03 1017 1 1.609344 0 0

Powered by AerisWeather